Find Starlink 33658

NORAD ID: 63384 Int'l Des: 2025-063 Owner: SPXS Country: US Constellation: starlink operational
LEOCIRCULAR

リアルタイム位置

3D地球を読み込み中...

Starlink 33658について

説明を読み込み中...

次回通過

Passes for default location (London). Set your location on the main map for personalized predictions.

高度履歴

Loading altitude history...

軌道要素

1 63384U 25063X 26106.74342998 .00008517 00000-0 29929-3 0 9996
2 63384 53.1580 235.8406 0000362 40.3002 319.8026 15.30205134 60588
Epoch: Apr 16, 2026 • Age: 12 hours

現在のステータス

高度 488.3 km
速度 7.62 km/s
衛星直下点 -39.35°S, 158.42°E
打ち上げ日 Mar 26, 2025
運用期間 1 years
タイプ internet

技術仕様

分類 Payload
質量 575.00 kg
乾燥質量 530.00 kg
総質量 575.00 kg
長さ 0.30 m
直径 4.10 m
スパン 29.00 m
形状 Box + pan
製造者 SPXS
バスタイプ Starlink V2MO
フェーズステータス In Orbit
所有者/国 SPXS/US

Most Searched